Weather Roundup
Issued by NWS Chicago, IL

Home | Current Version | Previous Version | Graphics & Text | Print | Product List | Glossary On
Versions: 1 2 3 4 5 6 7 8 9 10 11 12 13 14 15 16 17 18 19 20 21 22 23 24 25 26 27 28 29 30 31 32 33 34 35 36 37 38 39 40 41 42 43 44 45 46 47 48 49 50
000
NZUS59 KLOT 311506
HRRLOT

CHICAGO AREA WEATHER ROUNDUP
NATIONAL WEATHER SERVICE CHICAGO/ROMEOVILLE IL
900 AM CST SAT JAN 31 2015

NOTE: "FAIR" INDICATES FEW OR NO CLOUDS BELOW 12,000 FEET WITH NO
SIGNIFICANT WEATHER AND/OR OBSTRUCTIONS TO VISIBILITY.

* THESE STATIONS ARE NOT UNDER NWS QUALITY CONTROL. THEY ALSO MAY NOT
  REPORT WEATHER SUCH AS PRECIPITATION OR FOG.

ILZ005-006-012>014-019>023-311600-
NORTHEAST ILLINOIS

CITY           SKY/WX    TMP DP  RH WIND       PRES   REMARKS
OHARE          MOSUNNY   28  20  71 SW9       30.23S WCI  19
MIDWAY         PTSUNNY   31  22  69 SW9       30.24F WCI  23
AURORA         MOSUNNY   28  20  71 SW9       30.23F WCI  19
LANSING*       MOSUNNY   29  23  79 SW9       30.26S WCI  20
JOLIET*        MOSUNNY   29  22  76 SW8       30.25F WCI  21
WAUKEGAN       SUNNY     30  19  63 SW8G16    30.20S WCI  22
DUPAGE AIRPORT MOSUNNY   28  21  75 SW13      30.22F WCI  17
WHEELING       MOSUNNY   28  19  69 SW9       30.24S WCI  19
KANKAKEE*      MOSUNNY   30  26  83 SW14      30.28F WCI  20
MORRIS*        MOSUNNY   30  26  85 SW8       30.24F WCI  23
LEWIS AIRPORT* MOSUNNY   29  23  77 SW10      30.24F WCI  20
NORTHERLY IS     N/A     29  21  72 W8          N/A  WCI  21
$$

WIZ051-052-058>065-066-070>072-311600-
SOUTHEAST WISCONSIN

CITY           SKY/WX    TMP DP  RH WIND       PRES   REMARKS
MILWAUKEE      MOSUNNY   29  18  63 W13       30.18F WCI  19
KENOSHA*       SUNNY     30  19  63 SW14      30.19F WCI  19
RACINE*        SUNNY     29  18  63 SW10G18   30.20F WCI  20
BURLINGTON     SUNNY     26  19  72 SW9       30.19S WCI  17
WAUKESHA       SUNNY     25  18  74 SW12      30.18F WCI  14
$$

INZ001>003-010>013-019-020-311600-
NORTHWEST INDIANA

CITY           SKY/WX    TMP DP  RH WIND       PRES   REMARKS
GARY*          MOSUNNY   27  19  74 S9        30.27  WCI  17
MICHIGAN CITY* NOT AVBL
RENSSELAER*    NOT AVBL
VALPARAISO     SUNNY     27  21  78 SW10      30.26F WCI  17
$$

LMZ740>746-311600-
SOUTHERN LAKE MICHIGAN

STATION/POSITION TIME  SKY/WX   TEMP WIND        PRES    VSBY
                                AIR  DIR/SP/G
                 (UTC)          (F)  (DEG/KT/KT) (MB)    (MI)
HARRISON CRIB    1500            30  240/ 16/ 21   N/A
BURNHAM HARBOR   1500            30  260/  9/ 12   N/A
CALUMET HARBOR   1500            29  220/  8/ 13   N/A
BURNS HARBOR     NOT AVBL
MICHIGAN CITY    1500            28  190/ 13/ 16   N/A
$$

ABBREVIATIONS USED IN REMARKS
   TC - TEMPERATURE IN CELSIUS
  WCI - WIND CHILL INDEX
   HX - HEAT INDEX
  VSB - VISIBILITY
$$



USA.gov is the U.S. government's official web portal to all federal, state and local government web resources and services.